When you browse on this site, cookies collect data to enhance your experience and personalize the content and advertising you see.
Visit our Privacy Policy to learn more. By continuing to use the site, you agree to this use of cookies and data.
  • In United Kingdom
  • List of Countries
  • For 7 days
  • Water Temperature
  • Weather Map
  • Weather Widgets
  • user-avatar
    Login

    Hourly Weather Pikovets'

    Today, 17 August, Saturday

    Time Temperature Precipitation Wind Pressure Humidity
    00:00 +13°C° 0 mm 3 mps 741 mmHg 81%
    01:00 +12°C° 0 mm 3 mps 741 mmHg 80%
    02:00 +12°C° 0 mm 3 mps 741 mmHg 79%
    03:00 +11°C° 0 mm 3 mps 741 mmHg 81%
    04:00 +11°C° 0 mm 3 mps 741 mmHg 83%
    05:00 +11°C° 0 mm 3 mps 741 mmHg 85%
    06:00 +13°C° 0 mm 4 mps 741 mmHg 78%
    07:00 +15°C° 0 mm 4 mps 741 mmHg 71%
    08:00 +17°C° 0 mm 5 mps 741 mmHg 64%
    09:00 +17°C° 0 mm 5 mps 741 mmHg 64%
    10:00 +17°C° 0 mm 6 mps 741 mmHg 65%
    11:00 +17°C° 0 mm 6 mps 741 mmHg 65%
    12:00 +19°C° 0 mm 6 mps 741 mmHg 63%
    13:00 +19°C° 0 mm 6 mps 741 mmHg 60%
    14:00 +20°C° 0 mm 6 mps 741 mmHg 57%
    15:00 +20°C° 0 mm 6 mps 741 mmHg 57%
    16:00 +21°C° 0 mm 5 mps 741 mmHg 57%
    17:00 +21°C° 0 mm 5 mps 741 mmHg 56%
    18:00 +19°C° 0 mm 4 mps 741 mmHg 63%
    19:00 +18°C° 0 mm 3 mps 741 mmHg 70%
    20:00 +16°C° 0 mm 2 mps 741 mmHg 77%
    21:00 +16°C° 0 mm 2 mps 741 mmHg 80%
    22:00 +14°C° 0 mm 3 mps 741 mmHg 82%
    23:00 +14°C° 0 mm 3 mps 741 mmHg 84%

    Tomorrow, 18 August, Sunday

    Time Temperature Precipitation Wind Pressure Humidity
    00:00 +13°C° 0 mm 3 mps 741 mmHg 86%
    01:00 +13°C° 0 mm 3 mps 741 mmHg 88%
    02:00 +12°C° 0 mm 3 mps 741 mmHg 90%
    03:00 +12°C° 0 mm 3 mps 741 mmHg 91%
    04:00 +12°C° 0 mm 3 mps 742 mmHg 92%
    05:00 +12°C° 0 mm 3 mps 742 mmHg 93%
    06:00 +14°C° 0 mm 3 mps 742 mmHg 84%
    07:00 +17°C° 0 mm 4 mps 742 mmHg 75%
    08:00 +19°C° 0 mm 4 mps 742 mmHg 66%
    09:00 +20°C° 0 mm 4 mps 742 mmHg 59%
    10:00 +22°C° 0 mm 5 mps 743 mmHg 51%
    11:00 +23°C° 0 mm 5 mps 743 mmHg 44%
    12:00 +25°C° 0 mm 5 mps 743 mmHg 44%
    13:00 +25°C° 0 mm 5 mps 743 mmHg 44%
    14:00 +26°C° 0 mm 5 mps 743 mmHg 45%
    15:00 +25°C° 0 mm 4 mps 743 mmHg 46%
    16:00 +25°C° 0 mm 4 mps 743 mmHg 48%
    17:00 +25°C° 0 mm 4 mps 743 mmHg 50%
    18:00 +22°C° 0 mm 3 mps 744 mmHg 57%
    19:00 +20°C° 0 mm 3 mps 744 mmHg 63%
    20:00 +18°C° 0 mm 2 mps 744 mmHg 70%
    21:00 +18°C° 0 mm 2 mps 744 mmHg 72%
    22:00 +18°C° 0 mm 1 mps 744 mmHg 74%
    23:00 +16°C° 0 mm 1 mps 745 mmHg 75%

    Day after tomorrow, 19 August, Monday

    Time Temperature Precipitation Wind Pressure Humidity
    00:00 +16°C° 0 mm 1 mps 745 mmHg 77%
    01:00 +16°C° 0 mm 1 mps 745 mmHg 78%
    02:00 +15°C° 0 mm 1 mps 745 mmHg 79%
    03:00 +15°C° 0 mm 1 mps 745 mmHg 80%
    04:00 +15°C° 0 mm 1 mps 745 mmHg 80%
    05:00 +14°C° 0 mm 1 mps 745 mmHg 81%
    06:00 +18°C° 0 mm 1 mps 746 mmHg 73%
    07:00 +20°C° 0 mm 1 mps 746 mmHg 65%
    08:00 +22°C° 0 mm 1 mps 746 mmHg 57%
    09:00 +23°C° 0 mm 1 mps 746 mmHg 52%
    10:00 +25°C° 0 mm 2 mps 746 mmHg 47%
    11:00 +27°C° 0 mm 2 mps 746 mmHg 42%
    12:00 +27°C° 0 mm 2 mps 746 mmHg 39%
    13:00 +28°C° 0 mm 2 mps 746 mmHg 36%
    14:00 +29°C° 0 mm 2 mps 746 mmHg 33%
    15:00 +29°C° 0 mm 2 mps 746 mmHg 34%
    16:00 +29°C° 0 mm 2 mps 746 mmHg 34%
    17:00 +28°C° 0 mm 2 mps 746 mmHg 35%
    18:00 +26°C° 0 mm 2 mps 746 mmHg 41%
    19:00 +24°C° 0 mm 2 mps 746 mmHg 46%
    20:00 +21°C° 0 mm 2 mps 746 mmHg 52%
    21:00 +21°C° 0 mm 1 mps 746 mmHg 56%
    22:00 +21°C° 0 mm 1 mps 746 mmHg 60%
    23:00 +20°C° 0 mm 1 mps 747 mmHg 64%

    20 August, Tuesday

    Time Temperature Precipitation Wind Pressure Humidity
    00:00 +20°C° 0 mm 1 mps 747 mmHg 66%
    01:00 +19°C° 0 mm 1 mps 747 mmHg 68%
    02:00 +19°C° 0 mm 1 mps 747 mmHg 71%
    03:00 +18°C° 0 mm 1 mps 747 mmHg 72%
    04:00 +18°C° 0 mm 1 mps 747 mmHg 74%
    05:00 +18°C° 0 mm 1 mps 747 mmHg 75%
    06:00 +20°C° 0 mm 1 mps 747 mmHg 69%
    07:00 +22°C° 0 mm 1 mps 747 mmHg 63%
    08:00 +24°C° 0 mm 2 mps 747 mmHg 57%
    09:00 +26°C° 0 mm 2 mps 747 mmHg 51%
    10:00 +27°C° 0 mm 2 mps 747 mmHg 46%
    11:00 +29°C° 0 mm 3 mps 747 mmHg 41%
    12:00 +29°C° 0 mm 3 mps 747 mmHg 39%
    13:00 +30°C° 0 mm 3 mps 747 mmHg 36%
    14:00 +31°C° 0 mm 3 mps 747 mmHg 34%
    15:00 +31°C° 0 mm 3 mps 747 mmHg 35%
    16:00 +30°C° 0 mm 3 mps 746 mmHg 35%
    17:00 +30°C° 0 mm 3 mps 746 mmHg 36%
    18:00 +28°C° 0 mm 3 mps 746 mmHg 41%
    19:00 +26°C° 0 mm 3 mps 746 mmHg 47%
    20:00 +24°C° 0 mm 3 mps 746 mmHg 52%
    21:00 +22°C° 0 mm 3 mps 747 mmHg 55%
    22:00 +21°C° 0 mm 3 mps 747 mmHg 57%
    23:00 +21°C° 0 mm 3 mps 747 mmHg 59%

    21 August, Wednesday

    Time Temperature Precipitation Wind Pressure Humidity
    00:00 +20°C° 0 mm 3 mps 746 mmHg 63%
    01:00 +20°C° 0 mm 2 mps 746 mmHg 67%
    02:00 +19°C° 0 mm 2 mps 746 mmHg 72%
    03:00 +19°C° 0 mm 2 mps 746 mmHg 76%
    04:00 +19°C° 0 mm 2 mps 746 mmHg 80%
    05:00 +19°C° 0 mm 2 mps 745 mmHg 84%
    06:00 +20°C° 0 mm 2 mps 745 mmHg 77%
    07:00 +22°C° 0 mm 3 mps 746 mmHg 71%
    08:00 +25°C° 0 mm 3 mps 746 mmHg 65%
    09:00 +27°C° 0 mm 3 mps 746 mmHg 59%
    10:00 +28°C° 0 mm 3 mps 746 mmHg 53%
    11:00 +30°C° 0 mm 3 mps 746 mmHg 47%
    12:00 +30°C° 0 mm 3 mps 745 mmHg 45%
    13:00 +31°C° 0 mm 3 mps 745 mmHg 42%
    14:00 +33°C° 0 mm 3 mps 744 mmHg 39%
    15:00 +33°C° 0 mm 3 mps 744 mmHg 39%
    16:00 +33°C° 0 mm 3 mps 744 mmHg 39%
    17:00 +33°C° 0 mm 3 mps 744 mmHg 39%
    18:00 +30°C° 0 mm 3 mps 744 mmHg 45%
    19:00 +28°C° 0 mm 3 mps 744 mmHg 51%
    20:00 +26°C° 0 mm 3 mps 744 mmHg 57%
    21:00 +25°C° 0 mm 3 mps 744 mmHg 60%
    22:00 +24°C° 0 mm 3 mps 745 mmHg 63%
    23:00 +22°C° 0 mm 3 mps 745 mmHg 66%

    22 August, Thursday

    Time Temperature Precipitation Wind Pressure Humidity
    00:00 +22°C° 0 mm 4 mps 745 mmHg 70%
    01:00 +21°C° 0 mm 5 mps 745 mmHg 74%
    02:00 +20°C° 0 mm 6 mps 745 mmHg 78%
    03:00 +19°C° 0 mm 6 mps 745 mmHg 81%
    04:00 +17°C° 0 mm 6 mps 745 mmHg 85%
    05:00 +16°C° 0 mm 7 mps 745 mmHg 88%
    06:00 +17°C° 0 mm 7 mps 746 mmHg 83%
    07:00 +17°C° 0 mm 7 mps 746 mmHg 78%
    08:00 +18°C° 0 mm 7 mps 746 mmHg 73%
    09:00 +21°C° 0 mm 7 mps 746 mmHg 68%
    10:00 +22°C° 0 mm 7 mps 746 mmHg 62%
    11:00 +24°C° 0 mm 7 mps 747 mmHg 57%
    12:00 +24°C° 0 mm 8 mps 746 mmHg 56%
    13:00 +26°C° 0 mm 8 mps 746 mmHg 55%
    14:00 +26°C° 0 mm 8 mps 746 mmHg 53%
    15:00 +26°C° 0 mm 8 mps 746 mmHg 56%
    16:00 +24°C° 0 mm 8 mps 746 mmHg 58%
    17:00 +24°C° 0 mm 7 mps 746 mmHg 60%
    18:00 +22°C° 0 mm 7 mps 746 mmHg 64%
    19:00 +21°C° 0 mm 6 mps 746 mmHg 67%
    20:00 +20°C° 0 mm 6 mps 747 mmHg 71%
    21:00 +20°C° 0 mm 6 mps 747 mmHg 72%
    22:00 +18°C° 0 mm 7 mps 747 mmHg 72%
    23:00 +18°C° 0 mm 7 mps 747 mmHg 73%
    Show more